This is the latest recevied weather packets stored in our database for station/object KC5TXI. If no packets are shown the sender has not sent any weather packets the latest 10 day(s).
| Time | Temp. | Humidity | Pressure | Rain* | Wind** | Luminosity | Snow |
|---|---|---|---|---|---|---|---|
| 1777754193 | 26.11° C | 34% | 1021.5 hPa | 0 mm | - | 552 W/m² | - |
| 1777753585 | 25° C | 35% | 1021.7 hPa | 0 mm | - | 529 W/m² | - |
| 1777753284 | 25.56° C | 35% | 1021.5 hPa | 0 mm | - | 549 W/m² | - |
| 1777752980 | 25.56° C | 34% | 1021.6 hPa | 0 mm | - | 559 W/m² | - |
| 1777752676 | 25° C | 34% | 1021.7 hPa | 0 mm | - | 578 W/m² | - |
| 1777752372 | 25° C | 36% | 1022.1 hPa | 0 mm | - | 565 W/m² | - |
| 1777752069 | 25.56° C | 37% | 1022 hPa | 0 mm | - | 606 W/m² | - |
| 1777751768 | 25° C | 37% | 1022 hPa | 0 mm | - | 639 W/m² | - |
| 1777751458 | 25° C | 35% | 1022.2 hPa | 0 mm | - | 634 W/m² | - |
| 1777751155 | 25° C | 34% | 1022.2 hPa | 0 mm | - | 642 W/m² | - |
| 1777750851 | 25° C | 33% | 1022.3 hPa | 0 mm | - | 621 W/m² | - |
| 1777750245 | 25° C | 36% | 1022.3 hPa | 0 mm | - | 616 W/m² | - |
| 1777749940 | 24.44° C | 35% | 1022.2 hPa | 0 mm | - | 592 W/m² | - |
| 1777749638 | 24.44° C | 34% | 1022.2 hPa | 0 mm | - | 567 W/m² | - |
| 1777749335 | 25° C | 37% | 1022.4 hPa | 0 mm | - | 614 W/m² | - |
| 1777749033 | 25° C | 33% | 1022.4 hPa | 0 mm | - | 645 W/m² | - |
| 1777748730 | 25° C | 34% | 1022.5 hPa | 0 mm | - | 658 W/m² | - |
| 1777748427 | 25.56° C | 33% | 1022.5 hPa | 0 mm | - | 656 W/m² | - |
| 1777748121 | 25° C | 33% | 1022.5 hPa | 0 mm | - | 638 W/m² | - |
| 1777747819 | 24.44° C | 34% | 1022.7 hPa | 0 mm | - | 623 W/m² | - |
| 1777747211 | 24.44° C | 35% | 1022.7 hPa | 0 mm | - | 662 W/m² | - |
| 1777746298 | 24.44° C | 37% | 1022.9 hPa | 0 mm | - | 705 W/m² | - |
| 1777745391 | 23.89° C | 36% | 1023 hPa | 0 mm | - | 710 W/m² | - |
| 1777744784 | 23.33° C | 40% | 1023.4 hPa | 0 mm | - | 682 W/m² | - |
| 1777744478 | 23.89° C | 35% | 1023.4 hPa | 0 mm | - | 669 W/m² | - |
* Rain latest hour (hover to see other rain measurements)
** Current wind speed in m/s (hover to see current wind gust speed)